| time (UTC) | temp C | wind direction | speed KPH | gust KPH | rain 1hr cm | rain 24hr cm | rain mn cm | humidity % | barometer mb |
| 20260510120724 | 21 | 64 | 0.0 | 0.0 | 0.00 | 0.00 | 0.00 | 100 | 1011.0 |
| 20260510115719 | 21 | 64 | 0.0 | 0.0 | 0.00 | 0.00 | 0.00 | 100 | 1011.0 |
| 20260510115220 | 21 | 64 | 0.0 | 0.0 | 0.00 | 0.00 | 0.00 | 100 | 1010.9 |
| 20260510114719 | 21 | 49 | 0.0 | 0.0 | 0.00 | 0.00 | 0.00 | 100 | 1010.9 |
| 20260510114218 | 21 | 49 | 0.0 | 0.0 | 0.00 | 0.00 | 0.00 | 100 | 1010.8 |
| 20260510113715 | 21 | 49 | 0.0 | 0.0 | 0.00 | 0.00 | 0.00 | 100 | 1010.7 |
| 20260510113214 | 21 | 49 | 0.0 | 0.0 | 0.00 | 0.00 | 0.00 | 100 | 1010.7 |
| 20260510112712 | 21 | 49 | 0.0 | 0.0 | 0.00 | 0.00 | 0.00 | 100 | 1010.6 |
| 20260510112209 | 21 | 49 | 0.0 | 0.0 | 0.00 | 0.00 | 0.00 | 100 | 1010.6 |
| 20260510111710 | 21 | 49 | 0.0 | 0.0 | 0.00 | 0.00 | 0.00 | 100 | 1010.5 |
| 20260510111210 | 21 | 49 | 0.0 | 0.0 | 0.00 | 0.00 | 0.00 | 100 | 1010.5 |
| 20260510110708 | 21 | 49 | 0.0 | 0.0 | 0.00 | 0.00 | 0.00 | 100 | 1010.5 |
| 20260510110433 | 21 | 49 | 0.0 | 0.0 | 0.00 | 0.00 | 0.00 | 100 | 1010.6 |
| 20260510105652 | 21 | 49 | 0.0 | 0.0 | 0.00 | 0.00 | 0.00 | 100 | 1010.6 |
| 20260510105150 | 21 | 50 | 0.0 | 0.0 | 0.00 | 0.00 | 0.00 | 100 | 1010.5 |
| 20260510104644 | 21 | 49 | 0.0 | 1.6 | 0.00 | 0.00 | 0.00 | 100 | 1010.5 |
| 20260510104141 | 21 | 49 | 0.0 | 1.6 | 0.00 | 0.00 | 0.00 | 100 | 1010.5 |
| 20260510103639 | 20 | 55 | 0.0 | 0.0 | 0.00 | 0.00 | 0.00 | 100 | 1010.5 |
| 20260510103139 | 21 | 74 | 0.0 | 0.0 | 0.00 | 0.00 | 0.00 | 100 | 1010.4 |
| 20260510102637 | 21 | 74 | 0.0 | 0.0 | 0.00 | 0.00 | 0.00 | 100 | 1010.4 |
| 20260510102137 | 21 | 70 | 0.0 | 0.0 | 0.00 | 0.00 | 0.00 | 100 | 1010.4 |
| 20260510101637 | 21 | 84 | 0.0 | 0.0 | 0.00 | 0.00 | 0.00 | 100 | 1010.4 |
| 20260510101136 | 21 | 95 | 0.0 | 0.0 | 0.00 | 0.00 | 0.00 | 100 | 1010.4 |
| 20260510100637 | 21 | 122 | 0.0 | 0.0 | 0.00 | 0.00 | 0.00 | 100 | 1010.4 |
| 20260510100136 | 21 | 128 | 0.0 | 0.0 | 0.00 | 0.00 | 0.00 | 100 | 1010.4 |
| 20260510095636 | 21 | 138 | 0.0 | 0.0 | 0.00 | 0.00 | 0.00 | 100 | 1010.4 |
| 20260510095135 | 21 | 145 | 0.0 | 0.0 | 0.00 | 0.00 | 0.00 | 100 | 1010.3 |
| 20260510094905 | 21 | 149 | 0.0 | 0.0 | 0.00 | 0.00 | 0.00 | 100 | 1010.3 |
| 20260510094135 | 21 | 149 | 0.0 | 0.0 | 0.00 | 0.00 | 0.00 | 100 | 1010.2 |
| 20260510093633 | 22 | 149 | 0.0 | 0.0 | 0.00 | 0.00 | 0.00 | 100 | 1010.2 |
| 20260510093404 | 22 | 137 | 0.0 | 0.0 | 0.00 | 0.00 | 0.00 | 100 | 1010.2 |
| 20260510092627 | 22 | 145 | 0.0 | 0.0 | 0.00 | 0.00 | 0.00 | 100 | 1010.2 |
| 20260510092127 | 22 | 131 | 0.0 | 0.0 | 0.00 | 0.00 | 0.00 | 100 | 1010.2 |
| 20260510091627 | 22 | 139 | 0.0 | 3.2 | 0.00 | 0.00 | 0.00 | 100 | 1010.2 |
| 20260510091127 | 22 | 139 | 0.0 | 3.2 | 0.00 | 0.00 | 0.00 | 100 | 1010.1 |
| 20260510090626 | 21 | 159 | 0.0 | 3.2 | 0.00 | 0.00 | 0.00 | 100 | 1010.1 |
| 20260510090359 | 21 | 110 | 0.0 | 0.0 | 0.00 | 0.00 | 0.00 | 100 | 1010.2 |
| 20260510085627 | 21 | 109 | 0.0 | 0.0 | 0.00 | 0.00 | 0.00 | 100 | 1010.3 |
| 20260510085126 | 21 | 109 | 0.0 | 0.0 | 0.00 | 0.00 | 0.00 | 100 | 1010.4 |
| 20260510084123 | 21 | 109 | 0.0 | 0.0 | 0.00 | 0.00 | 0.00 | 100 | 1010.5 |
| 20260510083123 | 21 | 109 | 0.0 | 0.0 | 0.00 | 0.00 | 0.00 | 100 | 1010.3 |
| 20260510082624 | 21 | 109 | 0.0 | 0.0 | 0.00 | 0.00 | 0.00 | 100 | 1010.4 |
| 20260510082123 | 21 | 109 | 0.0 | 0.0 | 0.00 | 0.00 | 0.00 | 100 | 1010.5 |
| 20260510081623 | 21 | 109 | 0.0 | 0.0 | 0.00 | 0.00 | 0.00 | 100 | 1010.5 |
| 20260510081123 | 22 | 109 | 0.0 | 0.0 | 0.00 | 0.00 | 0.00 | 100 | 1010.4 |
| 20260510080623 | 22 | 109 | 0.0 | 0.0 | 0.00 | 0.00 | 0.00 | 100 | 1010.3 |
| 20260510080123 | 22 | 109 | 0.0 | 0.0 | 0.00 | 0.00 | 0.00 | 100 | 1010.3 |
| 20260510075617 | 22 | 109 | 0.0 | 1.6 | 0.00 | 0.00 | 0.00 | 100 | 1010.4 |
| 20260510075337 | 22 | 108 | 0.0 | 3.2 | 0.00 | 0.00 | 0.00 | 100 | 1010.4 |
| 20260510074824 | 22 | 118 | 0.0 | 3.2 | 0.00 | 0.00 | 0.00 | 100 | 1010.3 |
| 20260510074041 | 22 | 117 | 0.0 | 3.2 | 0.00 | 0.00 | 0.00 | 100 | 1010.3 |
| 20260510073801 | 22 | 117 | 0.0 | 3.2 | 0.00 | 0.00 | 0.00 | 100 | 1010.4 |
| 20260510073022 | 22 | 99 | 0.0 | 3.2 | 0.00 | 0.00 | 0.00 | 100 | 1010.4 |
| 20260510072513 | 22 | 116 | 0.0 | 4.8 | 0.00 | 0.00 | 0.00 | 100 | 1010.4 |
| 20260510072000 | 22 | 128 | 0.0 | 4.8 | 0.00 | 0.00 | 0.00 | 100 | 1010.4 |
| 20260510070946 | 22 | 131 | 1.6 | 6.4 | 0.00 | 0.00 | 0.00 | 100 | 1010.3 |
| 20260510070440 | 22 | 159 | 1.6 | 6.4 | 0.00 | 0.00 | 0.00 | 100 | 1010.2 |
| 20260510065934 | 22 | 147 | 0.0 | 6.4 | 0.00 | 0.00 | 0.00 | 100 | 1010.3 |
| 20260510065428 | 22 | 145 | 0.0 | 0.0 | 0.00 | 0.00 | 0.00 | 100 | 1010.3 |
| 20260510064917 | 22 | 134 | 0.0 | 0.0 | 0.00 | 0.00 | 0.00 | 100 | 1010.4 |
| 20260510064416 | 22 | 115 | 0.0 | 0.0 | 0.00 | 0.00 | 0.00 | 100 | 1010.5 |
| 20260510063903 | 22 | 134 | 0.0 | 4.8 | 0.00 | 0.00 | 0.00 | 100 | 1010.5 |
| 20260510063401 | 22 | 86 | 0.0 | 4.8 | 0.00 | 0.00 | 0.00 | 100 | 1010.7 |
| 20260510063128 | 22 | 83 | 1.6 | 4.8 | 0.00 | 0.00 | 0.00 | 100 | 1010.8 |
| 20260510062621 | 22 | 103 | 1.6 | 4.8 | 0.00 | 0.00 | 0.00 | 100 | 1010.9 |
| 20260510061839 | 22 | 95 | 0.0 | 3.2 | 0.00 | 0.00 | 0.00 | 100 | 1011.0 |
| 20260510061608 | 22 | 70 | 0.0 | 3.2 | 0.00 | 0.00 | 0.00 | 100 | 1011.0 |
| 20260510060831 | 22 | 91 | 0.0 | 3.2 | 0.00 | 0.00 | 0.00 | 100 | 1011.1 |
| 20260510060325 | 22 | 98 | 1.6 | 3.2 | 0.00 | 0.00 | 0.00 | 100 | 1011.2 |
| 20260510060048 | 22 | 61 | 0.0 | 3.2 | 0.00 | 0.00 | 0.00 | 100 | 1011.2 |
| 20260510055309 | 22 | 68 | 0.0 | 3.2 | 0.00 | 0.00 | 0.00 | 100 | 1011.1 |
| 20260510054802 | 22 | 68 | 0.0 | 3.2 | 0.00 | 0.00 | 0.00 | 100 | 1011.2 |
| 20260510053749 | 22 | 66 | 0.0 | 4.8 | 0.00 | 0.00 | 0.00 | 100 | 1011.2 |
| 20260510053238 | 22 | 64 | 1.6 | 8.0 | 0.00 | 0.00 | 0.00 | 100 | 1011.1 |
| 20260510052733 | 22 | 58 | 3.2 | 8.0 | 0.00 | 0.00 | 0.00 | 100 | 1011.1 |
| 20260510052232 | 22 | 66 | 1.6 | 8.0 | 0.00 | 0.00 | 0.00 | 100 | 1010.9 |
| 20260510051725 | 22 | 79 | 0.0 | 0.0 | 0.00 | 0.00 | 0.00 | 100 | 1010.8 |
| 20260510051450 | 22 | 82 | 0.0 | 0.0 | 0.00 | 0.00 | 0.00 | 100 | 1010.7 |
| 20260510050713 | 22 | 84 | 0.0 | 0.0 | 0.00 | 0.00 | 0.00 | 100 | 1010.8 |
| 20260510050208 | 22 | 78 | 0.0 | 0.0 | 0.00 | 0.00 | 0.00 | 100 | 1010.8 |
| 20260510045928 | 22 | 78 | 0.0 | 0.0 | 0.00 | 0.00 | 0.05 | 100 | 1010.6 |
| 20260510045151 | 22 | 78 | 0.0 | 0.0 | 0.00 | 0.00 | 0.05 | 100 | 1010.6 |
| 20260510044650 | 22 | 78 | 0.0 | 3.2 | 0.00 | 0.00 | 0.05 | 100 | 1010.5 |
| 20260510044416 | 22 | 78 | 0.0 | 4.8 | 0.00 | 0.00 | 0.05 | 100 | 1010.6 |
| 20260510043905 | 22 | 93 | 0.0 | 4.8 | 0.00 | 0.00 | 0.05 | 100 | 1010.6 |
| 20260510043128 | 22 | 91 | 1.6 | 8.0 | 0.00 | 0.00 | 0.05 | 100 | 1010.6 |
| 20260510042625 | 22 | 53 | 1.6 | 8.0 | 0.00 | 0.00 | 0.05 | 100 | 1010.7 |
| 20260510042119 | 22 | 59 | 1.6 | 8.0 | 0.00 | 0.00 | 0.05 | 100 | 1010.7 |
| 20260510041844 | 23 | 57 | 1.6 | 8.0 | 0.00 | 0.00 | 0.05 | 100 | 1010.7 |
| 20260510041125 | 23 | 48 | 0.0 | 0.0 | 0.00 | 0.00 | 0.05 | 100 | 1010.6 |
| 20260510040602 | 23 | 80 | 0.0 | 0.0 | 0.00 | 0.00 | 0.05 | 100 | 1010.3 |
| 20260510040056 | 23 | 88 | 0.0 | 1.6 | 0.00 | 0.00 | 0.05 | 100 | 1010.2 |
| 20260510035550 | 23 | 103 | 0.0 | 1.6 | 0.00 | 0.00 | 0.05 | 100 | 1010.1 |
| 20260510035043 | 23 | 137 | 0.0 | 1.6 | 0.00 | 0.00 | 0.05 | 100 | 1009.9 |
| 20260510034533 | 23 | 177 | 0.0 | 0.0 | 0.00 | 0.00 | 0.05 | 100 | 1009.7 |
| 20260510034027 | 23 | 178 | 1.6 | 6.4 | 0.00 | 0.00 | 0.05 | 100 | 1009.5 |
| 20260510033520 | 23 | 174 | 3.2 | 6.4 | 0.00 | 0.00 | 0.05 | 100 | 1009.5 |
| 20260510033251 | 23 | 174 | 3.2 | 6.4 | 0.00 | 0.00 | 0.05 | 100 | 1009.4 |
| 20260510032513 | 23 | 179 | 0.0 | 6.4 | 0.00 | 0.00 | 0.05 | 100 | 1009.3 |
| 20260510032007 | 23 | 178 | 0.0 | 1.6 | 0.00 | 0.00 | 0.05 | 100 | 1009.4 |
| 20260510031455 | 23 | 170 | 0.0 | 1.6 | 0.00 | 0.00 | 0.05 | 100 | 1009.5 |
| 20260510030956 | 23 | 152 | 0.0 | 1.6 | 0.00 | 0.00 | 0.05 | 100 | 1009.5 |
| 20260510030444 | 23 | 154 | 0.0 | 3.2 | 0.00 | 0.00 | 0.05 | 100 | 1009.4 |
| 20260510025943 | 23 | 136 | 0.0 | 3.2 | 0.00 | 0.00 | 0.05 | 100 | 1009.5 |
| 20260510025433 | 23 | 130 | 0.0 | 3.2 | 0.00 | 0.00 | 0.05 | 100 | 1009.4 |
| 20260510024931 | 23 | 120 | 0.0 | 3.2 | 0.00 | 0.00 | 0.05 | 100 | 1009.4 |
| 20260510024426 | 23 | 122 | 0.0 | 4.8 | 0.00 | 0.00 | 0.05 | 100 | 1009.4 |
| 20260510023916 | 23 | 114 | 0.0 | 4.8 | 0.00 | 0.00 | 0.05 | 100 | 1009.1 |
| 20260510023413 | 23 | 78 | 0.0 | 0.0 | 0.00 | 0.00 | 0.05 | 100 | 1009.3 |
| 20260510022903 | 23 | 78 | 0.0 | 1.6 | 0.00 | 0.00 | 0.05 | 100 | 1009.3 |
| 20260510022401 | 23 | 78 | 0.0 | 1.6 | 0.00 | 0.00 | 0.05 | 100 | 1009.3 |
| 20260510022126 | 23 | 60 | 0.0 | 1.6 | 0.00 | 0.00 | 0.05 | 100 | 1009.2 |
| 20260510021349 | 23 | 84 | 0.0 | 1.6 | 0.00 | 0.00 | 0.05 | 100 | 1009.1 |
| 20260510020843 | 24 | 84 | 0.0 | 0.0 | 0.00 | 0.00 | 0.05 | 100 | 1008.9 |
| 20260510020333 | 24 | 84 | 0.0 | 1.6 | 0.00 | 0.00 | 0.05 | 100 | 1008.8 |
| 20260510015831 | 24 | 84 | 0.0 | 1.6 | 0.00 | 0.00 | 0.05 | 100 | 1008.6 |
| 20260510015321 | 25 | 84 | 0.0 | 1.6 | 0.00 | 0.00 | 0.05 | 100 | 1008.4 |
| 20260510014813 | 25 | 118 | 0.0 | 0.0 | 0.00 | 0.00 | 0.05 | 7 | 1008.2 |
| 20260510014308 | 25 | 151 | 0.0 | 8.0 | 0.00 | 0.00 | 0.05 | 12 | 1008.1 |
| 20260510013807 | 25 | 147 | 3.2 | 9.7 | 0.00 | 0.00 | 0.05 | 18 | 1007.9 |
| 20260510013302 | 26 | 142 | 8.0 | 14.5 | 0.00 | 0.00 | 0.05 | 21 | 1007.7 |
| 20260510012756 | 26 | 173 | 8.0 | 16.1 | 0.00 | 0.00 | 0.05 | 16 | 1007.5 |
| 20260510012250 | 26 | 145 | 6.4 | 16.1 | 0.00 | 0.00 | 0.05 | 8 | 1007.5 |
| 20260510011739 | 26 | 182 | 4.8 | 16.1 | 0.00 | 0.00 | 0.05 | 2 | 1007.7 |
| 20260510011232 | 26 | 149 | 3.2 | 9.7 | 0.00 | 0.00 | 0.05 | 3 | 1007.7 |
| 20260510010732 | 26 | 172 | 1.6 | 9.7 | 0.00 | 0.00 | 0.05 | 4 | 1007.7 |
| 20260510010457 | 27 | 167 | 1.6 | 8.0 | 0.00 | 0.00 | 0.05 | 9 | 1007.8 |
| 20260510005719 | 27 | 175 | 3.2 | 9.7 | 0.00 | 0.00 | 0.05 | 16 | 1007.9 |
| 20260510005213 | 27 | 139 | 4.8 | 11.3 | 0.00 | 0.00 | 0.05 | 22 | 1008.0 |
| 20260510004702 | 27 | 170 | 6.4 | 12.9 | 0.00 | 0.00 | 0.05 | 27 | 1008.0 |
| 20260510004201 | 27 | 143 | 8.0 | 14.5 | 0.00 | 0.00 | 0.05 | 32 | 1008.0 |
| 20260510003651 | 28 | 140 | 8.0 | 14.5 | 0.00 | 0.00 | 0.05 | 35 | 1008.1 |
| 20260510003149 | 28 | 149 | 6.4 | 14.5 | 0.00 | 0.00 | 0.05 | 37 | 1008.1 |
| 20260510002639 | 28 | 151 | 6.4 | 14.5 | 0.00 | 0.00 | 0.05 | 39 | 1008.1 |
| 20260510002133 | 28 | 145 | 6.4 | 16.1 | 0.00 | 0.00 | 0.05 | 48 | 1008.0 |
| 20260510001631 | 29 | 169 | 4.8 | 16.1 | 0.00 | 0.00 | 0.05 | 50 | 1007.9 |
| 20260510001125 | 29 | 147 | 6.4 | 16.1 | 0.00 | 0.00 | 0.05 | 51 | 1007.7 |
| 20260510000110 | 30 | 146 | 8.0 | 12.9 | 0.00 | 0.00 | 0.05 | 53 | 1007.7 |
| 20260509235607 | 30 | 142 | 4.8 | 12.9 | 0.00 | 0.00 | 0.05 | 54 | 1007.6 |
| 20260509235057 | 30 | 137 | 1.6 | 14.5 | 0.00 | 0.00 | 0.05 | 54 | 1007.7 |
| 20260509234554 | 30 | 145 | 6.4 | 17.7 | 0.00 | 0.00 | 0.05 | 54 | 1007.7 |
| 20260509234320 | 30 | 137 | 9.7 | 17.7 | 0.00 | 0.00 | 0.05 | 54 | 1007.8 |
| 20260509233543 | 30 | 151 | 8.0 | 16.1 | 0.00 | 0.00 | 0.05 | 54 | 1007.8 |
| 20260509233032 | 30 | 130 | 6.4 | 17.7 | 0.00 | 0.00 | 0.05 | 54 | 1007.7 |
| 20260509232526 | 30 | 136 | 8.0 | 17.7 | 0.00 | 0.00 | 0.05 | 54 | 1007.6 |
| 20260509232021 | 30 | 125 | 9.7 | 19.3 | 0.00 | 0.00 | 0.05 | 54 | 1007.6 |
| 20260509231513 | 30 | 147 | 11.3 | 19.3 | 0.00 | 0.00 | 0.05 | 54 | 1007.6 |
| 20260509231013 | 30 | 126 | 12.9 | 22.5 | 0.00 | 0.00 | 0.05 | 54 | 1007.5 |
| 20260509230507 | 31 | 130 | 11.3 | 19.3 | 0.00 | 0.00 | 0.05 | 54 | 1007.5 |
| 20260509230234 | 31 | 140 | 11.3 | 19.3 | 0.00 | 0.00 | 0.05 | 54 | 1007.5 |
| 20260509225455 | 31 | 139 | 11.3 | 19.3 | 0.00 | 0.00 | 0.05 | 54 | 1007.5 |
| 20260509224954 | 31 | 149 | 9.7 | 17.7 | 0.00 | 0.00 | 0.05 | 54 | 1007.4 |
| 20260509224458 | 31 | 134 | 11.3 | 22.5 | 0.00 | 0.00 | 0.05 | 54 | 1007.5 |
| 20260509223459 | 31 | 182 | 9.7 | 17.7 | 0.00 | 0.00 | 0.05 | 54 | 1007.6 |
| 20260509222956 | 31 | 156 | 11.3 | 17.7 | 0.00 | 0.00 | 0.05 | 54 | 1007.6 |
| 20260509222457 | 31 | 140 | 11.3 | 17.7 | 0.00 | 0.00 | 0.05 | 54 | 1007.5 |
| 20260509222230 | 31 | 137 | 8.0 | 19.3 | 0.00 | 0.00 | 0.05 | 53 | 1007.6 |
| 20260509221500 | 32 | 158 | 1.6 | 19.3 | 0.00 | 0.00 | 0.05 | 52 | 1007.6 |
| 20260509220954 | 33 | 168 | 0.0 | 1.6 | 0.00 | 0.00 | 0.05 | 50 | 1007.6 |
| 20260509220456 | 33 | 261 | 0.0 | 3.2 | 0.00 | 0.00 | 0.05 | 49 | 1007.6 |
| 20260509220227 | 33 | 267 | 0.0 | 3.2 | 0.00 | 0.00 | 0.05 | 50 | 1007.5 |
| 20260509215732 | 33 | 314 | 0.0 | 0.0 | 0.00 | 0.00 | 0.05 | 48 | 1007.5 |
| 20260509215215 | 32 | 269 | 0.0 | 0.0 | 0.00 | 0.00 | 0.05 | 48 | 1007.5 |
| 20260509214431 | 33 | 267 | 0.0 | 9.7 | 0.00 | 0.00 | 0.05 | 46 | 1007.5 |
| 20260509213919 | 33 | 283 | 0.0 | 9.7 | 0.00 | 0.00 | 0.05 | 49 | 1007.5 |
| 20260509212855 | 32 | 226 | 1.6 | 9.7 | 0.00 | 0.00 | 0.05 | 52 | 1007.5 |
| 20260509212343 | 32 | 276 | 1.6 | 9.7 | 0.00 | 0.00 | 0.05 | 52 | 1007.4 |
| 20260509211839 | 32 | 124 | 3.2 | 9.7 | 0.00 | 0.00 | 0.05 | 51 | 1007.5 |
| 20260509211616 | 32 | 250 | 3.2 | 11.3 | 0.00 | 0.00 | 0.05 | 52 | 1007.5 |
| 20260509210839 | 32 | 271 | 3.2 | 11.3 | 0.00 | 0.00 | 0.05 | 54 | 1007.5 |
| 20260509210340 | 32 | 265 | 3.2 | 11.3 | 0.00 | 0.00 | 0.05 | 54 | 1007.6 |
| 20260509205845 | 32 | 273 | 3.2 | 11.3 | 0.00 | 0.00 | 0.05 | 53 | 1007.7 |
| 20260509205345 | 32 | 263 | 3.2 | 12.9 | 0.00 | 0.00 | 0.05 | 53 | 1007.7 |
| 20260509204839 | 32 | 267 | 3.2 | 12.9 | 0.00 | 0.00 | 0.05 | 54 | 1007.8 |
| 20260509204345 | 32 | 274 | 3.2 | 11.3 | 0.00 | 0.00 | 0.05 | 53 | 1007.8 |
| 20260509203835 | 32 | 298 | 4.8 | 11.3 | 0.00 | 0.00 | 0.05 | 53 | 1007.8 |
| 20260509203340 | 31 | 300 | 1.6 | 11.3 | 0.00 | 0.00 | 0.05 | 54 | 1007.8 |
| 20260509202834 | 31 | 257 | 0.0 | 3.2 | 0.00 | 0.00 | 0.05 | 54 | 1007.9 |
| 20260509202334 | 31 | 63 | 0.0 | 3.2 | 0.00 | 0.00 | 0.05 | 54 | 1007.9 |
| 20260509201834 | 31 | 271 | 0.0 | 3.2 | 0.00 | 0.00 | 0.05 | 54 | 1008.0 |
| 20260509201334 | 31 | 267 | 0.0 | 9.7 | 0.00 | 0.00 | 0.05 | 54 | 1008.0 |
| 20260509200840 | 31 | 227 | 1.6 | 11.3 | 0.00 | 0.00 | 0.05 | 53 | 1008.0 |
| 20260509200336 | 31 | 292 | 1.6 | 11.3 | 0.00 | 0.00 | 0.05 | 54 | 1008.1 |
| 20260509200120 | 31 | 274 | 0.0 | 9.7 | 0.00 | 0.00 | 0.05 | 54 | 1008.2 |
| 20260509195334 | 31 | 300 | 0.0 | 9.7 | 0.00 | 0.00 | 0.05 | 54 | 1008.2 |
| 20260509194828 | 31 | 290 | 0.0 | 8.0 | 0.00 | 0.00 | 0.05 | 54 | 1008.3 |
| 20260509194554 | 31 | 239 | 0.0 | 8.0 | 0.00 | 0.00 | 0.05 | 54 | 1008.4 |
| 20260509193816 | 31 | 282 | 1.6 | 8.0 | 0.00 | 0.00 | 0.05 | 53 | 1008.4 |
| 20260509193310 | 31 | 246 | 1.6 | 8.0 | 0.00 | 0.00 | 0.05 | 54 | 1008.5 |
| 20260509192759 | 31 | 189 | 1.6 | 11.3 | 0.00 | 0.00 | 0.05 | 54 | 1008.6 |
| 20260509192528 | 31 | 186 | 1.6 | 11.3 | 0.00 | 0.00 | 0.05 | 54 | 1008.6 |
| 20260509191752 | 30 | 252 | 0.0 | 3.2 | 0.00 | 0.00 | 0.05 | 52 | 1008.7 |
| 20260509191242 | 30 | 251 | 0.0 | 4.8 | 0.00 | 0.00 | 0.05 | 53 | 1008.8 |
| 20260509190741 | 30 | 61 | 0.0 | 4.8 | 0.00 | 0.00 | 0.05 | 52 | 1008.8 |
| 20260509190230 | 30 | 9 | 0.0 | 6.4 | 0.00 | 0.00 | 0.05 | 53 | 1008.9 |
| 20260509185729 | 30 | 329 | 0.0 | 6.4 | 0.00 | 0.00 | 0.05 | 53 | 1008.9 |
| 20260509185212 | 30 | 343 | 0.0 | 0.0 | 0.00 | 0.00 | 0.05 | 54 | 1008.9 |
| 20260509184948 | 30 | 269 | 0.0 | 6.4 | 0.00 | 0.00 | 0.05 | 54 | 1008.9 |
| 20260509184445 | 30 | 254 | 0.0 | 6.4 | 0.00 | 0.00 | 0.05 | 54 | 1009.0 |
| 20260509183704 | 30 | 263 | 0.0 | 1.6 | 0.00 | 0.00 | 0.05 | 54 | 1009.1 |
| 20260509183159 | 29 | 244 | 0.0 | 0.0 | 0.00 | 0.00 | 0.05 | 53 | 1009.0 |
| 20260509182919 | 29 | 238 | 0.0 | 3.2 | 0.00 | 0.00 | 0.05 | 52 | 1009.1 |
| 20260509182136 | 29 | 263 | 0.0 | 3.2 | 0.00 | 0.00 | 0.05 | 46 | 1009.1 |
| 20260509181636 | 29 | 244 | 0.0 | 12.9 | 0.00 | 0.00 | 0.05 | 38 | 1009.2 |
| 20260509181128 | 29 | 209 | 3.2 | 12.9 | 0.00 | 0.00 | 0.05 | 36 | 1009.2 |
| 20260509180626 | 29 | 263 | 1.6 | 9.7 | 0.00 | 0.00 | 0.05 | 15 | 1009.3 |
| 20260509175607 | 28 | 263 | 4.8 | 14.5 | 0.00 | 0.00 | 0.05 | 8 | 1009.5 |
| 20260509175343 | 28 | 249 | 4.8 | 12.9 | 0.00 | 0.00 | 0.05 | 10 | 1009.5 |
| 20260509174838 | 28 | 253 | 4.8 | 14.5 | 0.00 | 0.00 | 0.05 | 100 | 1009.6 |
| 20260509174346 | 28 | 278 | 6.4 | 14.5 | 0.00 | 0.00 | 0.05 | 100 | 1009.5 |
| 20260509173550 | 28 | 264 | 4.8 | 14.5 | 0.00 | 0.00 | 0.05 | 100 | 1009.7 |
| 20260509173326 | 28 | 309 | 4.8 | 14.5 | 0.00 | 0.00 | 0.05 | 100 | 1009.8 |
| 20260509172550 | 28 | 242 | 4.8 | 11.3 | 0.00 | 0.00 | 0.05 | 100 | 1009.9 |
| 20260509171548 | 27 | 19 | 1.6 | 11.3 | 0.00 | 0.00 | 0.05 | 100 | 1009.9 |
| 20260509171112 | 27 | 279 | 3.2 | 11.3 | 0.00 | 0.00 | 0.05 | 100 | 1009.9 |
| 20260509170106 | 27 | 336 | 4.8 | 11.3 | 0.00 | 0.00 | 0.05 | 100 | 1009.9 |
| 20260509165547 | 27 | 342 | 3.2 | 11.3 | 0.00 | 0.00 | 0.05 | 100 | 1009.6 |
| 20260509165056 | 27 | 342 | 4.8 | 12.9 | 0.00 | 0.00 | 0.05 | 100 | 1009.5 |
| 20260509164542 | 27 | 301 | 6.4 | 12.9 | 0.00 | 0.00 | 0.05 | 100 | 1009.5 |
| 20260509164059 | 26 | 1 | 4.8 | 12.9 | 0.00 | 0.00 | 0.05 | 100 | 1009.6 |
| 20260509163824 | 26 | 352 | 4.8 | 11.3 | 0.00 | 0.00 | 0.05 | 100 | 1009.7 |
| 20260509163059 | 26 | 298 | 4.8 | 11.3 | 0.00 | 0.00 | 0.05 | 100 | 1009.6 |
| 20260509162548 | 26 | 65 | 3.2 | 9.7 | 0.00 | 0.00 | 0.05 | 100 | 1009.6 |
| 20260509162051 | 26 | 352 | 3.2 | 3.2 | 0.00 | 0.00 | 0.05 | 100 | 1009.6 |
| 20260509161412 | 26 | 23 | 1.6 | 6.4 | 0.00 | 0.00 | 0.05 | 100 | 1009.6 |
| 20260509160902 | 26 | 36 | 0.0 | 6.4 | 0.00 | 0.00 | 0.05 | 100 | 1009.8 |
| 20260509160350 | 26 | 269 | 0.0 | 1.6 | 0.00 | 0.00 | 0.05 | 100 | 1009.7 |
| 20260509160126 | 26 | 269 | 0.0 | 3.2 | 0.00 | 0.00 | 0.05 | 100 | 1009.7 |
| 20260509155338 | 25 | 306 | 0.0 | 3.2 | 0.00 | 0.00 | 0.05 | 100 | 1009.7 |
| 20260509154832 | 25 | 139 | 0.0 | 0.0 | 0.00 | 0.00 | 0.05 | 100 | 1009.5 |
| 20260509154326 | 25 | 139 | 0.0 | 0.0 | 0.00 | 0.00 | 0.05 | 100 | 1009.8 |
| 20260509153820 | 25 | 138 | 0.0 | 0.0 | 0.00 | 0.00 | 0.05 | 100 | 1010.0 |
| 20260509153545 | 25 | 139 | 0.0 | 0.0 | 0.00 | 0.00 | 0.05 | 100 | 1009.8 |
| 20260509152804 | 25 | 139 | 0.0 | 0.0 | 0.00 | 0.00 | 0.05 | 100 | 1009.5 |
| 20260509152305 | 25 | 122 | 0.0 | 3.2 | 0.00 | 0.00 | 0.05 | 100 | 1009.7 |
| 20260509151756 | 25 | 114 | 0.0 | 3.2 | 0.00 | 0.00 | 0.05 | 100 | 1009.6 |
| 20260509151250 | 25 | 114 | 0.0 | 3.2 | 0.00 | 0.00 | 0.05 | 100 | 1010.0 |
| 20260509150740 | 25 | 114 | 0.0 | 3.2 | 0.00 | 0.00 | 0.05 | 100 | 1009.6 |
| 20260509150238 | 25 | 153 | 0.0 | 0.0 | 0.00 | 0.00 | 0.05 | 100 | 1009.4 |
| 20260509145734 | 25 | 169 | 0.0 | 0.0 | 0.00 | 0.00 | 0.05 | 100 | 1009.3 |
| 20260509145221 | 25 | 169 | 0.0 | 0.0 | 0.00 | 0.00 | 0.05 | 100 | 1009.5 |
| 20260509144721 | 25 | 202 | 0.0 | 0.0 | 0.00 | 0.00 | 0.05 | 100 | 1009.8 |
| 20260509144215 | 25 | 203 | 0.0 | 0.0 | 0.00 | 0.00 | 0.05 | 100 | 1009.9 |
| 20260509143939 | 24 | 203 | 0.0 | 0.0 | 0.00 | 0.00 | 0.05 | 100 | 1010.0 |
| 20260509143208 | 24 | 203 | 0.0 | 0.0 | 0.00 | 0.00 | 0.05 | 100 | 1010.0 |
| 20260509142706 | 24 | 203 | 0.0 | 0.0 | 0.00 | 0.00 | 0.05 | 100 | 1009.9 |
| 20260509142203 | 24 | 203 | 0.0 | 0.0 | 0.00 | 0.00 | 0.05 | 100 | 1009.7 |
| 20260509142011 | 24 | 203 | 0.0 | 0.0 | 0.00 | 0.00 | 0.05 | 100 | 1009.5 |
| 20260509140701 | 24 | 209 | 0.0 | 1.6 | 0.00 | 0.00 | 0.05 | 100 | 1009.3 |
| 20260509140159 | 24 | 228 | 0.0 | 0.0 | 0.00 | 0.00 | 0.05 | 100 | 1009.4 |
| 20260509135700 | 24 | 229 | 0.0 | 0.0 | 0.00 | 0.00 | 0.05 | 100 | 1009.4 |
| 20260509135159 | 24 | 241 | 0.0 | 0.0 | 0.00 | 0.00 | 0.05 | 100 | 1009.4 |
| 20260509134656 | 24 | 308 | 0.0 | 0.0 | 0.00 | 0.00 | 0.05 | 100 | 1009.1 |
| 20260509133703 | 24 | 282 | 0.0 | 0.0 | 0.00 | 0.00 | 0.05 | 100 | 1009.0 |
| 20260509133155 | 24 | 294 | 0.0 | 0.0 | 0.00 | 0.00 | 0.05 | 100 | 1009.0 |
| 20260509132658 | 24 | 278 | 0.0 | 0.0 | 0.00 | 0.00 | 0.05 | 100 | 1008.8 |
| 20260509132155 | 25 | 280 | 0.0 | 0.0 | 0.00 | 0.00 | 0.05 | 100 | 1008.8 |
| 20260509131654 | 25 | 276 | 0.0 | 0.0 | 0.00 | 0.00 | 0.05 | 100 | 1008.8 |
| 20260509131154 | 24 | 149 | 0.0 | 0.0 | 0.00 | 0.00 | 0.05 | 100 | 1008.3 |
| 20260509130655 | 23 | 244 | 0.0 | 0.0 | 0.00 | 0.00 | 0.05 | 100 | 1008.3 |
| 20260509130152 | 23 | 240 | 0.0 | 0.0 | 0.00 | 0.05 | 0.05 | 100 | 1008.4 |
| 20260509125646 | 23 | 148 | 0.0 | 0.0 | 0.00 | 0.05 | 0.05 | 100 | 1006.6 |
| 20260509125140 | 23 | 147 | 0.0 | 0.0 | 0.03 | 0.05 | 0.05 | 100 | 1006.7 |
| 20260509124629 | 23 | 151 | 0.0 | 0.0 | 0.03 | 0.05 | 0.05 | 100 | 1008.3 |
| 20260509124124 | 23 | 164 | 0.0 | 0.0 | 0.03 | 0.05 | 0.05 | 100 | 1008.4 |
| 20260509123622 | 23 | 150 | 0.0 | 0.0 | 0.05 | 0.05 | 0.05 | 100 | 1008.7 |
| 20260509123117 | 22 | 106 | 0.0 | 0.0 | 0.05 | 0.05 | 0.05 | 100 | 1009.5 |
| 20260509122610 | 22 | 106 | 0.0 | 0.0 | 0.05 | 0.05 | 0.05 | 100 | 1008.8 |
| 20260509122105 | 22 | 105 | 0.0 | 0.0 | 0.05 | 0.05 | 0.05 | 100 | 1008.3 |
| 20260509121558 | 23 | 153 | 0.0 | 0.0 | 0.05 | 0.05 | 0.05 | 100 | 1008.4 |
| 20260509121049 | 23 | 154 | 0.0 | 0.0 | 0.05 | 0.05 | 0.05 | 100 | 1008.5 |